contact:dominique.lefevre@mio.osupytheas.fr, maurice.libes@osupytheas.fr, didier.mallarino@osupytheas.fr
Project:EMSO http://www.emso-fr.org/EMSO-France
Depth: 2436.0 m
Title:EMSO Ligure Ouest : Data MII capteur AQUADOPP
Date,Latitude,Longitude,X_East,Y_North,Z_Up,Amplitude_X,Amplitude_Y,Amplitude_Z,Batterie,SoundSpeed,Heading,Pitch,Roll,Pressure,TIS,Speed,Direction
, degrees North, degrees East, m.s-1, m.s-1,m.s-1, 1, 1, 1, Volt, m.s-1, degree, degree, degree, dbar, degree_C, m.s-1, degree
2022-11-29T00:04:03,42.805,6.029,0.011,-0.009,-0.051,102.0,102.0,100.0,13.3,1505.2,333.7,-0.8,1.8,2471.146,13.28,0.014,129.3
2022-11-29T00:07:03,42.805,6.029,0.035,-0.005,-0.002,101.0,102.0,100.0,13.4,1505.2,326.1,-0.8,1.8,2471.164,13.28,0.035,98.1
2022-11-29T00:10:03,42.805,6.029,0.027,0.004,-0.038,101.0,102.0,101.0,13.4,1505.2,317.2,-0.8,1.8,2471.171,13.29,0.027,81.6
2022-11-29T00:13:03,42.805,6.029,0.027,-0.006,-0.003,104.0,101.0,99.0,13.4,1505.2,333.1,-0.8,1.8,2471.149,13.29,0.027,102.5
2022-11-29T00:16:03,42.805,6.029,0.048,0.004,-0.01,101.0,103.0,101.0,13.4,1505.2,335.6,-0.7,1.8,2471.141,13.29,0.048,85.2
2022-11-29T00:19:03,42.805,6.029,0.021,-0.011,-0.021,100.0,102.0,101.0,13.4,1505.2,323.7,-0.7,1.8,2471.114,13.29,0.023,117.6
2022-11-29T00:22:03,42.805,6.029,0.036,0.021,0.001,101.0,102.0,100.0,13.4,1505.2,326.1,-0.8,1.8,2471.109,13.29,0.041,59.7
2022-11-29T00:25:03,42.805,6.029,0.015,0.0,-0.011,102.0,102.0,101.0,13.4,1505.2,321.2,-0.8,1.8,2471.113,13.29,0.015,90.0
2022-11-29T00:28:03,42.805,6.029,0.022,0.012,0.015,102.0,102.0,101.0,13.4,1505.2,325.0,-0.8,1.8,2471.119,13.29,0.025,61.4
2022-11-29T00:31:03,42.805,6.029,0.025,0.003,-0.011,101.0,102.0,99.0,13.4,1505.2,322.8,-0.8,1.8,2471.157,13.29,0.025,83.2
2022-11-29T00:34:03,42.805,6.029,0.013,-0.008,-0.025,101.0,102.0,100.0,13.4,1505.2,325.2,-0.8,1.8,2471.088,13.29,0.015,121.6
2022-11-29T00:37:03,42.805,6.029,0.027,0.0,-0.024,101.0,101.0,100.0,13.4,1505.2,318.6,-0.8,1.8,2471.098,13.29,0.026,90.0
2022-11-29T00:40:03,42.805,6.029,0.021,-0.008,-0.032,101.0,102.0,101.0,13.3,1505.2,323.4,-0.8,1.8,2471.089,13.29,0.022,110.9
2022-11-29T00:43:03,42.805,6.029,0.03,-0.003,0.002,101.0,102.0,101.0,13.4,1505.2,333.8,-0.8,1.8,2471.096,13.29,0.03,95.7
2022-11-29T00:46:03,42.805,6.029,-0.009,0.0,-0.029,103.0,101.0,100.0,13.4,1505.2,329.3,-0.7,1.8,2471.093,13.29,0.009,270.0
2022-11-29T00:49:03,42.805,6.029,0.001,0.0,-0.019,102.0,101.0,100.0,13.4,1505.2,330.8,-0.8,1.8,2471.139,13.29,0.001,90.0
2022-11-29T00:52:03,42.805,6.029,0.008,-0.006,-0.04,101.0,101.0,101.0,13.3,1505.2,322.9,-0.8,1.8,2471.091,13.29,0.01,126.9
2022-11-29T00:55:03,42.805,6.029,0.022,-0.014,-0.021,102.0,101.0,100.0,13.4,1505.2,317.5,-0.8,1.8,2471.129,13.29,0.026,122.5
2022-11-29T00:58:03,42.805,6.029,0.019,-0.004,-0.013,102.0,101.0,101.0,13.3,1505.2,330.6,-0.8,1.8,2471.105,13.29,0.019,101.9
2022-11-29T01:04:03,42.805,6.029,0.014,0.001,-0.037,103.0,103.0,102.0,13.4,1505.2,329.7,-0.8,1.9,2471.144,13.28,0.014,85.9
2022-11-29T01:07:03,42.805,6.029,0.022,-0.009,-0.044,101.0,102.0,101.0,13.4,1505.2,326.7,-0.8,1.8,2471.151,13.29,0.023,112.2
2022-11-29T01:10:03,42.805,6.029,0.033,-0.004,-0.005,101.0,100.0,100.0,13.4,1505.2,324.8,-0.7,1.8,2471.079,13.29,0.033,96.9
2022-11-29T01:13:03,42.805,6.029,-0.016,0.017,0.009,101.0,101.0,100.0,13.4,1505.2,320.0,-0.8,1.8,2471.161,13.29,0.023,316.7
2022-11-29T01:16:03,42.805,6.029,0.014,0.019,-0.002,101.0,103.0,99.0,13.4,1505.2,320.9,-0.8,1.8,2471.143,13.29,0.023,36.4
2022-11-29T01:19:03,42.805,6.029,0.008,0.003,-0.021,101.0,103.0,100.0,13.3,1505.2,327.1,-0.7,1.8,2471.126,13.29,0.008,69.4
2022-11-29T01:22:03,42.805,6.029,0.004,0.003,-0.024,102.0,100.0,102.0,13.3,1505.2,328.2,-0.8,1.8,2471.078,13.29,0.005,53.1
2022-11-29T01:25:03,42.805,6.029,0.022,-0.004,-0.01,101.0,101.0,100.0,13.4,1505.2,327.8,-0.8,1.9,2471.101,13.29,0.022,100.3
2022-11-29T01:28:03,42.805,6.029,0.017,-0.011,-0.03,102.0,100.0,101.0,13.4,1505.2,330.2,-0.8,1.8,2471.115,13.29,0.02,122.9
2022-11-29T01:31:03,42.805,6.029,-0.006,-0.002,-0.012,102.0,101.0,101.0,13.4,1505.2,329.1,-0.8,1.8,2471.09,13.29,0.006,251.6
2022-11-29T01:34:03,42.805,6.029,-0.002,-0.002,-0.041,101.0,101.0,101.0,13.4,1505.2,322.9,-0.7,1.8,2471.11,13.29,0.002,225.0
2022-11-29T01:37:03,42.805,6.029,0.023,-0.025,0.0,101.0,101.0,101.0,13.3,1505.2,326.7,-0.8,1.8,2471.089,13.29,0.033,137.4
2022-11-29T01:40:03,42.805,6.029,0.028,-0.003,0.003,101.0,101.0,101.0,13.4,1505.2,317.3,-0.8,1.8,2471.111,13.29,0.028,96.1
2022-11-29T01:43:03,42.805,6.029,0.029,-0.013,-0.012,101.0,101.0,100.0,13.4,1505.2,326.8,-0.8,1.8,2471.1,13.29,0.031,114.1
2022-11-29T01:46:03,42.805,6.029,0.029,0.007,-0.008,102.0,101.0,101.0,13.4,1505.2,320.5,-0.8,1.8,2471.149,13.29,0.029,76.4
2022-11-29T01:49:03,42.805,6.029,-0.001,-0.007,-0.044,101.0,101.0,100.0,13.4,1505.2,323.8,-0.8,1.8,2471.108,13.29,0.007,188.1
2022-11-29T01:52:03,42.805,6.029,0.014,-0.019,-0.05,101.0,101.0,101.0,13.4,1505.2,332.4,-0.8,1.8,2471.135,13.29,0.023,143.6
2022-11-29T01:55:03,42.805,6.029,0.041,0.02,-0.026,101.0,101.0,101.0,13.4,1505.2,317.4,-0.8,1.8,2471.13,13.29,0.045,64.0
2022-11-29T01:58:03,42.805,6.029,0.02,0.0,-0.025,101.0,101.0,101.0,13.4,1505.2,323.2,-0.7,1.8,2471.128,13.29,0.02,90.0
2022-11-29T02:04:02,42.805,6.029,0.031,-0.007,-0.022,101.0,101.0,101.0,13.4,1505.2,335.2,-0.7,1.8,2471.164,13.28,0.031,102.7
2022-11-29T02:07:03,42.805,6.029,0.018,-0.009,-0.027,101.0,101.0,102.0,13.3,1505.2,322.9,-0.8,1.8,2471.151,13.28,0.02,116.6
2022-11-29T02:10:03,42.805,6.029,0.04,0.012,0.003,102.0,101.0,100.0,13.4,1505.2,323.2,-0.8,1.9,2471.148,13.29,0.041,73.3
2022-11-29T02:13:03,42.805,6.029,-0.011,0.0,-0.033,101.0,102.0,101.0,13.4,1505.2,324.5,-0.8,1.8,2471.102,13.29,0.011,270.0
2022-11-29T02:16:03,42.805,6.029,0.024,-0.018,-0.048,101.0,101.0,100.0,13.3,1505.2,319.1,-0.8,1.8,2471.134,13.29,0.03,126.9
2022-11-29T02:19:03,42.805,6.029,-0.002,-0.01,-0.01,101.0,101.0,100.0,13.3,1505.2,320.8,-0.8,1.8,2471.122,13.29,0.01,191.3
2022-11-29T02:22:03,42.805,6.029,0.016,-0.004,-0.017,101.0,101.0,100.0,13.4,1505.2,322.9,-0.8,1.8,2471.095,13.29,0.016,104.0
2022-11-29T02:25:03,42.805,6.029,0.013,0.002,-0.02,102.0,102.0,101.0,13.4,1505.2,329.2,-0.8,1.8,2471.133,13.29,0.013,81.3
2022-11-29T02:28:03,42.805,6.029,0.009,0.01,-0.016,101.0,101.0,101.0,13.4,1505.2,330.3,-0.8,1.8,2471.079,13.29,0.013,42.0
2022-11-29T02:31:03,42.805,6.029,0.029,-0.017,0.004,101.0,102.0,100.0,13.4,1505.2,323.2,-0.7,1.8,2471.085,13.29,0.033,120.4
2022-11-29T02:34:03,42.805,6.029,0.025,-0.008,-0.033,101.0,102.0,100.0,13.4,1505.2,323.1,-0.7,1.8,2471.081,13.29,0.026,107.7
2022-11-29T02:37:03,42.805,6.029,0.034,-0.007,-0.011,103.0,102.0,101.0,13.3,1505.2,318.6,-0.8,1.8,2471.104,13.29,0.034,101.6
2022-11-29T02:40:03,42.805,6.029,0.021,-0.004,-0.021,102.0,101.0,101.0,13.4,1505.2,318.6,-0.8,1.8,2471.071,13.29,0.021,100.8
2022-11-29T02:43:03,42.805,6.029,0.028,-0.009,-0.006,101.0,102.0,101.0,13.4,1505.2,318.7,-0.7,1.8,2471.111,13.29,0.029,107.8
2022-11-29T02:46:03,42.805,6.029,0.033,-0.005,0.01,101.0,101.0,101.0,13.4,1505.2,330.5,-0.8,1.8,2471.053,13.29,0.033,98.6
2022-11-29T02:49:03,42.805,6.029,0.023,0.0,-0.045,101.0,101.0,101.0,13.4,1505.2,322.3,-0.8,1.8,2471.125,13.29,0.023,90.0
2022-11-29T02:52:03,42.805,6.029,0.027,-0.004,-0.016,101.0,101.0,100.0,13.4,1505.2,322.6,-0.7,1.8,2471.064,13.29,0.027,98.4
2022-11-29T02:55:03,42.805,6.029,0.036,-0.026,-0.065,101.0,100.0,102.0,13.4,1505.2,325.8,-0.8,1.8,2471.069,13.29,0.044,125.8
2022-11-29T02:58:03,42.805,6.029,0.038,-0.025,-0.015,103.0,101.0,100.0,13.4,1505.2,322.9,-0.8,1.8,2471.075,13.29,0.045,123.3
2022-11-29T03:04:03,42.805,6.029,0.004,-0.014,-0.057,102.0,103.0,101.0,13.3,1505.2,322.8,-0.8,1.8,2471.097,13.28,0.014,164.1
2022-11-29T03:07:03,42.805,6.029,0.005,0.002,-0.026,102.0,100.0,102.0,13.4,1505.2,321.8,-0.8,1.8,2471.099,13.28,0.005,68.2
2022-11-29T03:10:03,42.805,6.029,0.027,-0.005,-0.006,101.0,101.0,101.0,13.3,1505.2,325.2,-0.8,1.8,2471.135,13.29,0.027,100.5
2022-11-29T03:13:03,42.805,6.029,0.013,0.005,-0.011,102.0,101.0,101.0,13.4,1505.2,334.8,-0.8,1.8,2471.068,13.29,0.013,69.0
2022-11-29T03:16:03,42.805,6.029,0.029,-0.003,-0.014,102.0,102.0,100.0,13.4,1505.2,320.6,-0.8,1.8,2471.087,13.29,0.029,95.9
2022-11-29T03:19:03,42.805,6.029,0.009,-0.007,-0.03,103.0,102.0,100.0,13.3,1505.2,331.6,-0.7,1.8,2471.103,13.29,0.011,127.9
2022-11-29T03:22:03,42.805,6.029,0.011,-0.017,-0.053,101.0,102.0,101.0,13.4,1505.2,329.7,-0.8,1.8,2471.087,13.29,0.02,147.1
2022-11-29T03:25:03,42.805,6.029,0.02,0.0,-0.014,102.0,101.0,101.0,13.4,1505.2,329.3,-0.7,1.8,2471.052,13.29,0.02,90.0
2022-11-29T03:28:03,42.805,6.029,0.024,0.002,-0.01,101.0,100.0,102.0,13.4,1505.2,336.9,-0.8,1.8,2471.069,13.29,0.024,85.2
2022-11-29T03:31:03,42.805,6.029,0.025,-0.022,-0.035,100.0,101.0,102.0,13.3,1505.2,334.8,-0.8,1.8,2471.056,13.29,0.033,131.3
2022-11-29T03:34:03,42.805,6.029,0.023,0.016,-0.018,100.0,103.0,100.0,13.4,1505.2,328.3,-0.8,1.8,2471.129,13.29,0.028,55.2
2022-11-29T03:37:03,42.805,6.029,0.0,-0.009,-0.024,102.0,101.0,100.0,13.3,1505.2,330.5,-0.7,1.8,2471.074,13.29,0.009,180.0
2022-11-29T03:40:03,42.805,6.029,0.034,-0.031,-0.005,102.0,101.0,101.0,13.3,1505.2,322.2,-0.8,1.9,2471.076,13.29,0.046,132.4
2022-11-29T03:43:03,42.805,6.029,-0.006,-0.023,-0.017,101.0,101.0,101.0,13.3,1505.2,332.0,-0.8,1.8,2471.079,13.29,0.023,194.6
2022-11-29T03:46:03,42.805,6.029,0.011,-0.004,-0.049,100.0,101.0,102.0,13.4,1505.2,329.9,-0.7,1.8,2471.059,13.29,0.011,110.0
2022-11-29T03:49:03,42.805,6.029,0.025,-0.015,-0.023,103.0,101.0,99.0,13.4,1505.2,324.1,-0.8,1.8,2471.072,13.29,0.029,121.0
2022-11-29T03:52:03,42.805,6.029,0.021,-0.018,-0.046,101.0,101.0,101.0,13.4,1505.2,327.4,-0.8,1.8,2471.039,13.29,0.027,130.6
2022-11-29T03:55:03,42.805,6.029,0.017,-0.002,-0.014,101.0,103.0,100.0,13.4,1505.2,320.8,-0.7,1.8,2471.066,13.29,0.017,96.7
2022-11-29T03:58:03,42.805,6.029,0.024,-0.013,-0.036,102.0,101.0,100.0,13.4,1505.2,329.5,-0.8,1.8,2471.045,13.29,0.027,118.4
2022-11-29T04:04:03,42.805,6.029,-0.002,-0.011,-0.049,101.0,102.0,100.0,13.3,1505.2,335.2,-0.7,1.8,2471.114,13.28,0.011,190.3
2022-11-29T04:07:03,42.805,6.029,0.008,-0.022,-0.046,101.0,102.0,101.0,13.4,1505.2,326.5,-0.8,1.8,2471.093,13.28,0.023,160.0
2022-11-29T04:10:03,42.805,6.029,0.029,0.009,-0.025,102.0,101.0,101.0,13.3,1505.2,321.6,-0.7,1.8,2471.047,13.29,0.03,72.8
2022-11-29T04:13:03,42.805,6.029,0.016,-0.001,-0.018,103.0,100.0,101.0,13.4,1505.2,322.3,-0.8,1.8,2471.049,13.29,0.016,93.6
2022-11-29T04:16:03,42.805,6.029,0.017,0.006,-0.016,102.0,102.0,101.0,13.4,1505.2,322.3,-0.7,1.8,2471.045,13.29,0.018,70.6
2022-11-29T04:19:03,42.805,6.029,0.009,0.013,-0.022,102.0,101.0,101.0,13.4,1505.2,321.8,-0.8,1.8,2471.063,13.29,0.015,34.7
2022-11-29T04:22:03,42.805,6.029,0.024,-0.027,-0.023,103.0,102.0,100.0,13.4,1505.2,330.2,-0.8,1.8,2471.063,13.29,0.036,138.4
2022-11-29T04:25:03,42.805,6.029,0.006,-0.005,-0.034,102.0,101.0,101.0,13.4,1505.2,326.4,-0.8,1.8,2471.072,13.29,0.007,129.8
2022-11-29T04:28:03,42.805,6.029,0.037,0.005,-0.009,100.0,102.0,102.0,13.4,1505.2,324.4,-0.8,1.8,2471.067,13.29,0.037,82.3
2022-11-29T04:31:03,42.805,6.029,0.036,-0.012,-0.023,100.0,101.0,101.0,13.4,1505.2,316.4,-0.8,1.8,2471.037,13.29,0.037,108.4
2022-11-29T04:34:03,42.805,6.029,0.024,-0.007,-0.013,102.0,102.0,100.0,13.3,1505.2,330.4,-0.8,1.8,2471.041,13.29,0.025,106.3
2022-11-29T04:37:03,42.805,6.029,0.009,-0.01,-0.022,101.0,102.0,101.0,13.4,1505.2,321.1,-0.8,1.8,2471.057,13.29,0.013,138.0
2022-11-29T04:40:03,42.805,6.029,0.005,0.003,-0.033,101.0,101.0,101.0,13.3,1505.2,336.8,-0.7,1.8,2471.081,13.29,0.005,59.0
2022-11-29T04:43:03,42.805,6.029,0.033,-0.008,-0.059,102.0,101.0,101.0,13.4,1505.2,329.4,-0.8,1.8,2471.071,13.29,0.033,103.6
2022-11-29T04:46:03,42.805,6.029,0.001,-0.008,-0.048,101.0,101.0,102.0,13.3,1505.2,317.8,-0.8,1.8,2471.038,13.29,0.008,172.9
2022-11-29T04:49:03,42.805,6.029,0.01,-0.017,-0.044,103.0,100.0,100.0,13.4,1505.2,330.3,-0.8,1.8,2471.054,13.29,0.019,149.5
2022-11-29T04:52:03,42.805,6.029,-0.007,-0.013,-0.042,102.0,103.0,101.0,13.4,1505.2,330.4,-0.8,1.8,2471.064,13.29,0.014,208.3
2022-11-29T04:55:03,42.805,6.029,0.039,-0.004,-0.019,101.0,101.0,101.0,13.3,1505.2,319.4,-0.8,1.8,2471.044,13.29,0.039,95.9
2022-11-29T04:58:03,42.805,6.029,0.02,0.0,-0.015,101.0,102.0,101.0,13.3,1505.2,317.4,-0.8,1.8,2471.076,13.29,0.02,90.0
2022-11-29T05:04:03,42.805,6.029,0.024,-0.006,-0.034,101.0,102.0,101.0,13.4,1505.2,328.4,-0.8,1.8,2471.103,13.28,0.024,104.0
2022-11-29T05:07:03,42.805,6.029,0.011,0.0,-0.011,101.0,101.0,101.0,13.3,1505.2,326.3,-0.8,1.9,2471.096,13.28,0.011,90.0
2022-11-29T05:10:03,42.805,6.029,0.022,-0.009,-0.033,102.0,102.0,101.0,13.3,1505.2,321.8,-0.8,1.8,2471.096,13.29,0.023,112.2
2022-11-29T05:13:03,42.805,6.029,0.002,-0.013,-0.017,101.0,102.0,101.0,13.4,1505.2,327.4,-0.8,1.8,2471.037,13.29,0.013,171.3
2022-11-29T05:16:03,42.805,6.029,-0.006,-0.003,-0.011,101.0,103.0,100.0,13.4,1505.2,318.2,-0.8,1.8,2471.073,13.29,0.006,243.4
2022-11-29T05:19:03,42.805,6.029,-0.006,-0.017,-0.044,102.0,101.0,101.0,13.4,1505.2,320.4,-0.8,1.8,2471.068,13.29,0.018,199.4
2022-11-29T05:22:03,42.805,6.029,-0.002,-0.001,-0.039,103.0,101.0,100.0,13.4,1505.2,324.3,-0.7,1.8,2471.078,13.29,0.002,243.4
2022-11-29T05:25:03,42.805,6.029,0.011,-0.024,-0.044,102.0,102.0,101.0,13.4,1505.2,331.3,-0.8,1.8,2471.034,13.29,0.026,155.4
2022-11-29T05:28:03,42.805,6.029,0.008,0.0,0.01,103.0,101.0,100.0,13.3,1505.2,330.3,-0.8,1.8,2471.046,13.29,0.008,90.0
2022-11-29T05:31:03,42.805,6.029,0.014,-0.005,-0.028,101.0,101.0,100.0,13.3,1505.2,317.8,-0.8,1.8,2471.057,13.29,0.014,109.6
2022-11-29T05:34:03,42.805,6.029,0.003,0.018,-0.011,101.0,102.0,101.0,13.3,1505.2,320.9,-0.8,1.8,2471.052,13.29,0.018,9.5
2022-11-29T05:37:03,42.805,6.029,-0.006,-0.006,-0.035,102.0,101.0,101.0,13.3,1505.2,328.0,-0.8,1.8,2471.065,13.29,0.008,225.0
2022-11-29T05:40:03,42.805,6.029,-0.01,0.005,-0.014,101.0,101.0,101.0,13.4,1505.2,329.1,-0.7,1.9,2471.03,13.29,0.011,296.6
2022-11-29T05:43:03,42.805,6.029,0.013,-0.025,-0.033,102.0,101.0,101.0,13.4,1505.2,331.2,-0.8,1.8,2471.043,13.29,0.028,152.5
2022-11-29T05:46:03,42.805,6.029,0.011,-0.021,-0.062,102.0,102.0,100.0,13.4,1505.2,321.2,-0.7,1.8,2471.077,13.29,0.023,152.4
2022-11-29T05:49:03,42.805,6.029,0.004,-0.014,-0.053,101.0,101.0,100.0,13.4,1505.2,328.4,-0.8,1.8,2471.047,13.29,0.014,164.1
2022-11-29T05:52:03,42.805,6.029,0.006,0.001,-0.047,102.0,101.0,100.0,13.3,1505.2,324.0,-0.7,1.8,2471.06,13.29,0.006,80.5
2022-11-29T05:55:03,42.805,6.029,0.003,0.01,-0.009,101.0,102.0,100.0,13.4,1505.2,318.8,-0.8,1.9,2471.075,13.29,0.01,16.7
2022-11-29T05:58:03,42.805,6.029,0.009,-0.002,-0.027,102.0,101.0,101.0,13.4,1505.2,327.4,-0.8,1.8,2471.09,13.29,0.009,102.5
2022-11-29T06:04:03,42.805,6.029,-0.004,0.004,-0.028,102.0,101.0,101.0,13.4,1505.2,322.3,-0.8,1.8,2471.07,13.28,0.005,315.0
2022-11-29T06:07:03,42.805,6.029,0.027,0.001,-0.006,102.0,102.0,102.0,13.4,1505.2,329.7,-0.8,1.8,2471.112,13.28,0.027,87.9
2022-11-29T06:10:03,42.805,6.029,0.027,-0.008,-0.018,102.0,102.0,101.0,13.3,1505.2,319.9,-0.7,1.8,2471.117,13.28,0.028,106.5
2022-11-29T06:13:03,42.805,6.029,0.008,-0.011,-0.048,101.0,102.0,101.0,13.4,1505.2,323.8,-0.8,1.8,2471.04,13.29,0.013,144.0
2022-11-29T06:16:03,42.805,6.029,0.002,0.007,-0.008,102.0,102.0,100.0,13.4,1505.2,331.1,-0.8,1.8,2471.063,13.29,0.007,15.9
2022-11-29T06:19:03,42.805,6.029,0.001,-0.011,-0.047,102.0,102.0,101.0,13.4,1505.2,322.0,-0.8,1.8,2471.088,13.29,0.011,174.8
2022-11-29T06:22:03,42.805,6.029,0.013,0.0,-0.029,102.0,102.0,101.0,13.4,1505.2,318.8,-0.8,1.9,2471.075,13.29,0.013,90.0
2022-11-29T06:25:03,42.805,6.029,0.004,-0.007,-0.043,102.0,101.0,101.0,13.4,1505.2,323.4,-0.7,1.9,2471.086,13.29,0.008,150.3
2022-11-29T06:28:03,42.805,6.029,0.02,-0.012,-0.014,102.0,102.0,101.0,13.4,1505.2,316.8,-0.8,1.8,2471.075,13.29,0.023,121.0
2022-11-29T06:31:03,42.805,6.029,-0.006,0.0,0.001,101.0,101.0,101.0,13.4,1505.2,320.8,-0.8,1.8,2471.08,13.29,0.006,270.0
2022-11-29T06:34:03,42.805,6.029,0.017,-0.018,-0.058,102.0,101.0,101.0,13.4,1505.2,334.4,-0.7,1.8,2471.083,13.29,0.024,136.6
2022-11-29T06:37:03,42.805,6.029,0.023,-0.017,-0.036,102.0,102.0,101.0,13.3,1505.2,322.0,-0.8,1.8,2471.058,13.29,0.028,126.5
2022-11-29T06:40:03,42.805,6.029,-0.028,-0.001,0.004,102.0,101.0,101.0,13.4,1505.2,324.0,-0.8,1.8,2471.071,13.29,0.028,268.0
2022-11-29T06:43:03,42.805,6.029,-0.015,0.001,-0.034,103.0,101.0,100.0,13.4,1505.2,317.3,-0.8,1.8,2471.064,13.29,0.015,273.8
2022-11-29T06:46:03,42.805,6.029,0.007,0.002,-0.077,102.0,102.0,101.0,13.4,1505.2,322.6,-0.8,1.8,2471.064,13.29,0.007,74.1
2022-11-29T06:49:03,42.805,6.029,-0.002,0.008,-0.021,102.0,102.0,101.0,13.3,1505.2,320.5,-0.8,1.8,2471.052,13.29,0.008,346.0
2022-11-29T06:52:03,42.805,6.029,-0.007,-0.035,-0.035,102.0,101.0,101.0,13.4,1505.2,323.2,-0.7,1.8,2471.089,13.29,0.035,191.3
2022-11-29T06:55:03,42.805,6.029,-0.005,0.007,-0.017,102.0,101.0,101.0,13.3,1505.2,318.8,-0.8,1.8,2471.093,13.29,0.008,324.5
2022-11-29T06:58:03,42.805,6.029,0.001,-0.001,-0.029,102.0,101.0,100.0,13.3,1505.2,324.8,-0.7,1.8,2471.047,13.29,0.001,135.0
2022-11-29T07:04:03,42.805,6.029,0.0,-0.003,-0.042,101.0,102.0,101.0,13.3,1505.2,318.2,-0.8,1.8,2471.133,13.28,0.003,180.0
2022-11-29T07:07:03,42.805,6.029,-0.005,0.0,-0.023,101.0,101.0,101.0,13.4,1505.2,322.0,-0.8,1.8,2471.13,13.29,0.005,270.0
2022-11-29T07:10:03,42.805,6.029,0.006,-0.012,-0.044,101.0,101.0,100.0,13.4,1505.2,323.2,-0.7,1.8,2471.125,13.29,0.013,153.4
2022-11-29T07:13:03,42.805,6.029,0.01,-0.009,-0.034,101.0,102.0,100.0,13.3,1505.2,329.0,-0.8,1.8,2471.129,13.29,0.013,132.0
2022-11-29T07:16:03,42.805,6.029,-0.008,0.003,-0.009,101.0,101.0,102.0,13.4,1505.2,316.3,-0.8,1.8,2471.094,13.29,0.008,290.6
2022-11-29T07:19:03,42.805,6.029,0.024,-0.029,-0.015,101.0,101.0,101.0,13.4,1505.2,323.7,-0.7,1.8,2471.113,13.29,0.037,140.4
2022-11-29T07:22:03,42.805,6.029,0.0,-0.015,-0.039,101.0,102.0,100.0,13.3,1505.2,316.9,-0.8,1.8,2471.095,13.29,0.015,180.0
2022-11-29T07:25:03,42.805,6.029,0.015,0.003,-0.012,101.0,101.0,101.0,13.4,1505.2,333.0,-0.8,1.8,2471.071,13.29,0.015,78.7
2022-11-29T07:28:03,42.805,6.029,0.009,0.0,0.005,101.0,101.0,100.0,13.4,1505.2,328.3,-0.8,1.8,2471.104,13.29,0.009,90.0
2022-11-29T07:31:03,42.805,6.029,-0.006,0.0,-0.044,103.0,101.0,100.0,13.4,1505.2,319.6,-0.8,1.8,2471.093,13.29,0.006,270.0
2022-11-29T07:34:03,42.805,6.029,-0.02,0.015,-0.025,102.0,101.0,100.0,13.4,1505.2,323.1,-0.8,1.8,2471.104,13.29,0.025,306.9
2022-11-29T07:37:03,42.805,6.029,0.013,0.003,-0.012,101.0,102.0,100.0,13.3,1505.2,316.9,-0.7,1.8,2471.08,13.29,0.013,77.0
2022-11-29T07:40:03,42.805,6.029,0.0,0.0,-0.044,101.0,102.0,101.0,13.4,1505.2,325.8,-0.7,1.8,2471.118,13.29,0.0,0.0
2022-11-29T07:43:03,42.805,6.029,0.008,0.014,0.013,101.0,102.0,100.0,13.4,1505.2,317.3,-0.8,1.9,2471.116,13.29,0.016,29.7
2022-11-29T07:46:03,42.805,6.029,0.01,0.002,-0.015,102.0,101.0,101.0,13.4,1505.2,332.6,-0.7,1.8,2471.087,13.29,0.01,78.7
2022-11-29T07:49:03,42.805,6.029,-0.012,0.001,-0.024,101.0,101.0,101.0,13.4,1505.2,321.3,-0.7,1.8,2471.136,13.29,0.012,274.8
2022-11-29T07:52:03,42.805,6.029,-0.013,-0.007,-0.04,100.0,102.0,102.0,13.4,1505.2,327.2,-0.8,1.8,2471.12,13.29,0.014,241.7
2022-11-29T07:55:03,42.805,6.029,0.005,-0.001,-0.016,102.0,101.0,100.0,13.3,1505.2,326.9,-0.8,1.8,2471.099,13.29,0.005,101.3
2022-11-29T07:58:03,42.805,6.029,0.019,-0.009,-0.03,102.0,101.0,101.0,13.4,1505.2,326.3,-0.8,1.8,2471.147,13.29,0.021,115.3
2022-11-29T09:04:03,42.805,6.029,-0.027,0.0,-0.019,101.0,101.0,102.0,13.3,1505.1,331.7,-0.8,1.8,2471.672,13.27,0.026,270.0
2022-11-29T09:07:03,42.805,6.029,-0.022,0.003,-0.03,102.0,100.0,101.0,13.4,1505.2,318.2,-0.8,1.8,2471.561,13.28,0.022,277.8
2022-11-29T09:10:03,42.805,6.029,-0.018,-0.001,-0.011,100.0,101.0,100.0,13.4,1505.2,320.8,-0.7,1.8,2471.445,13.28,0.018,266.8
2022-11-29T09:13:03,42.805,6.029,-0.026,0.014,-0.05,101.0,100.0,101.0,13.4,1505.2,334.8,-0.8,1.8,2471.428,13.28,0.029,298.3
2022-11-29T09:16:03,42.805,6.029,-0.017,0.01,-0.009,100.0,101.0,102.0,13.4,1505.2,328.6,-0.8,1.8,2471.346,13.29,0.019,300.5
2022-11-29T09:19:03,42.805,6.029,-0.007,0.026,0.017,102.0,100.0,101.0,13.4,1505.2,318.7,-0.7,1.8,2471.338,13.29,0.026,344.9
2022-11-29T09:22:03,42.805,6.029,-0.01,-0.001,-0.015,100.0,102.0,100.0,13.4,1505.2,331.1,-0.8,1.8,2471.259,13.29,0.01,264.3
2022-11-29T09:25:03,42.805,6.029,-0.019,0.016,-0.037,102.0,101.0,100.0,13.4,1505.2,322.8,-0.8,1.8,2471.297,13.29,0.024,310.1
2022-11-29T09:28:03,42.805,6.029,-0.017,0.012,-0.014,102.0,101.0,100.0,13.3,1505.2,326.7,-0.8,1.8,2471.25,13.29,0.02,305.2
2022-11-29T09:31:03,42.805,6.029,-0.016,-0.005,-0.022,101.0,101.0,101.0,13.4,1505.2,317.3,-0.7,1.8,2471.253,13.29,0.016,252.6
2022-11-29T09:34:03,42.805,6.029,-0.018,-0.004,-0.055,101.0,101.0,101.0,13.3,1505.2,327.6,-0.7,1.8,2471.227,13.29,0.018,257.5
2022-11-29T09:37:03,42.805,6.029,-0.033,0.028,-0.015,101.0,101.0,101.0,13.4,1505.2,334.8,-0.8,1.8,2471.226,13.29,0.043,310.3
2022-11-29T09:40:03,42.805,6.029,-0.009,0.009,-0.04,102.0,101.0,100.0,13.4,1505.2,329.0,-0.7,1.8,2471.196,13.29,0.012,315.0
2022-11-29T09:43:03,42.805,6.029,-0.016,0.005,-0.05,102.0,102.0,100.0,13.4,1505.2,336.2,-0.8,1.8,2471.214,13.29,0.016,287.4
2022-11-29T09:46:03,42.805,6.029,-0.016,0.025,-0.036,101.0,101.0,101.0,13.4,1505.2,325.4,-0.7,1.8,2471.198,13.29,0.029,327.4
2022-11-29T09:49:03,42.805,6.029,0.004,0.019,0.009,102.0,99.0,100.0,13.3,1505.2,331.0,-0.7,1.8,2471.171,13.29,0.019,11.9
2022-11-29T09:52:03,42.805,6.029,-0.022,-0.011,-0.014,101.0,101.0,101.0,13.4,1505.2,317.5,-0.8,1.8,2471.192,13.29,0.024,243.4
2022-11-29T09:55:03,42.805,6.029,-0.015,0.008,-0.024,100.0,101.0,100.0,13.3,1505.2,328.1,-0.8,1.8,2471.232,13.29,0.017,298.1
2022-11-29T09:58:03,42.805,6.029,-0.011,-0.01,-0.05,101.0,102.0,100.0,13.3,1505.2,327.5,-0.8,1.9,2471.24,13.29,0.014,227.7
2022-11-29T10:04:03,42.805,6.029,-0.016,0.016,-0.027,101.0,101.0,100.0,13.3,1505.2,323.5,-0.8,1.8,2471.239,13.29,0.022,315.0
2022-11-29T10:07:03,42.805,6.029,-0.019,0.009,-0.047,101.0,101.0,100.0,13.4,1505.2,319.4,-0.8,1.8,2471.277,13.29,0.021,295.3
2022-11-29T10:10:03,42.805,6.029,-0.035,-0.003,-0.041,101.0,101.0,101.0,13.4,1505.2,329.4,-0.8,1.8,2471.253,13.29,0.035,265.1
2022-11-29T10:13:03,42.805,6.029,-0.006,0.005,-0.041,101.0,100.0,100.0,13.3,1505.2,319.5,-0.8,1.9,2471.257,13.29,0.007,309.8
2022-11-29T10:16:03,42.805,6.029,-0.034,0.016,-0.004,101.0,101.0,101.0,13.4,1505.2,322.8,-0.8,1.8,2471.283,13.29,0.037,295.2
2022-11-29T10:19:03,42.805,6.029,-0.001,0.01,-0.011,100.0,101.0,100.0,13.3,1505.2,330.5,-0.8,1.8,2471.271,13.29,0.01,354.3
2022-11-29T10:22:03,42.805,6.029,-0.006,0.021,-0.012,100.0,101.0,101.0,13.3,1505.2,328.7,-0.7,1.8,2471.234,13.29,0.021,344.1
2022-11-29T10:25:03,42.805,6.029,-0.007,0.007,-0.033,101.0,101.0,100.0,13.3,1505.2,323.8,-0.7,1.8,2471.251,13.29,0.009,315.0
2022-11-29T10:28:03,42.805,6.029,-0.017,0.012,-0.018,101.0,101.0,100.0,13.4,1505.2,331.0,-0.8,1.8,2471.226,13.29,0.02,305.2
2022-11-29T10:31:03,42.805,6.029,-0.015,0.036,-0.008,101.0,102.0,100.0,13.4,1505.2,325.7,-0.8,1.8,2471.257,13.29,0.039,337.4
2022-11-29T10:34:03,42.805,6.029,0.006,0.003,-0.056,101.0,102.0,100.0,13.3,1505.2,330.1,-0.8,1.9,2471.266,13.29,0.006,63.4
2022-11-29T10:37:03,42.805,6.029,-0.018,0.006,-0.036,100.0,103.0,101.0,13.3,1505.2,323.4,-0.8,1.8,2471.259,13.29,0.018,288.4
2022-11-29T10:40:03,42.805,6.029,0.005,-0.003,-0.036,101.0,101.0,101.0,13.3,1505.2,329.5,-0.8,1.8,2471.252,13.29,0.005,121.0
2022-11-29T10:43:03,42.805,6.029,-0.011,0.005,-0.018,100.0,102.0,100.0,13.4,1505.2,332.0,-0.8,1.8,2471.251,13.29,0.012,294.4
2022-11-29T10:46:03,42.805,6.029,-0.001,-0.003,-0.045,102.0,102.0,101.0,13.4,1505.2,317.7,-0.8,1.8,2471.239,13.29,0.003,198.4
2022-11-29T10:49:03,42.805,6.029,-0.01,0.006,-0.043,101.0,100.0,101.0,13.4,1505.2,320.7,-0.8,1.8,2471.206,13.29,0.011,301.0
2022-11-29T10:52:03,42.805,6.029,-0.022,0.011,-0.02,102.0,100.0,101.0,13.4,1505.2,327.6,-0.7,1.8,2471.265,13.29,0.024,296.6
2022-11-29T10:55:03,42.805,6.029,-0.023,0.014,-0.017,101.0,101.0,100.0,13.4,1505.2,320.6,-0.7,1.8,2471.261,13.29,0.026,301.3